Location: Spiekeroog
(53.7670°N, 7.7000°E)
Time: 02:07:41
(UTC+01:00)

ISS - Visible Passes

Search period start: 19 December 2018 00:00
Search period end: 29 December 2018 00:00
Orbit: 401 x 408 km, 51.6° (Epoch: 19 December)

Date Brightness Start Highest point End Pass type
(mag) Time Alt. Az. Time Alt. Az. Time Alt. Az.
23 Dec -0.6 07:48:57 10° S 07:51:02 16° SE 07:53:07 10° ESE visible
24 Dec -0.3 06:58:26 10° SSE 06:59:05 10° SE 06:59:43 10° SE visible
25 Dec -1.4 07:39:58 10° SSW 07:42:45 25° SSE 07:45:31 10° E visible
26 Dec -1.0 06:48:22 10° SSW 06:50:41 18° SSE 06:53:01 10° ESE visible
27 Dec -0.8 05:57:16 10° SSE 05:58:40 12° SE 06:00:04 10° ESE visible
27 Dec -2.3 07:31:25 10° SW 07:34:30 37° SSE 07:37:34 10° E visible
28 Dec -1.9 06:39:54 13° SSW 06:42:21 28° SSE 06:45:13 10° E visible
